Location: Newark
(45.5000°N, 11.4167°E)
Time: 22:14:56
(UTC+00:00)

Transit 2A Rocket - Pass Details

Date: 30 August 2019
Orbit: 592 x 911 km, 66.7° (Epoch: 19 September)

Event Time Altitude Azimuth Distance (km) Brightness Sun altitude
Rises 17:21:59 0° 231° (SW) 3,413 9.1 5.1°
Reaches altitude 10° 17:24:40 10° 238° (WSW) 2,437 8.5 4.7°
Maximum altitude 17:29:59 43° 310° (NW) 1,094 6.6 3.7°
Drops below altitude 10° 17:34:54 10° 22° (NNE) 2,246 7.3 2.9°
Sets 17:37:17 0° 29° (NNE) 3,119 8.0 2.5°
